Location: Carabito
(9.8355°N, 67.9249°W)
Time: 00:40:26
(UTC+00:00)

Cosmos 1606 - Pass Details

Date: 23 May 2024
Orbit: 458 x 473 km, 82.5° (Epoch: 15 June)

Event Time Altitude Azimuth Distance (km) Brightness Sun altitude
Rises 09:31:34 0° 356° (N) 2,476 6.4 -9.6°
Reaches altitude 10° 09:33:38 10° 357° (N) 1,606 5.5 -9.1°
Maximum altitude 09:37:08 87° 86° (E) 469 2.5 -8.3°
Drops below altitude 10° 09:40:40 10° 175° (S) 1,618 5.0 -7.5°
Sets 09:42:45 0° 176° (S) 2,498 6.0 -7.0°
